Home   Weather   Almería   Past weeks

Flag for Spain Past Weather in Almería, Spain — Yesterday and Last 2 Weeks

Now
68 °F

Passing clouds.


Feels Like: 68 °F
Forecast: 53 / 64 °F
Wind: 8 mph from Southwest

Location: Almeria / Aeropuerto

Current Time: Dec 6, 2016 at 5:08:58 pm

Latest Report: Dec 6, 2016 at 4:00 pm


Visibility: 28 mi

Pressure: 30.23 "Hg

Humidity: 73%

Dew Point: 59 °F

Location of AlmeríaLocation

Past Weather in Almería — Graph

°F

Almería Temperature Yesterday

Maximum temperature yesterday: 68 °F (at 1:00 pm)
Minimum temperature yesterday: 56 °F (at 4:00 am)
Average temperature yesterday: 61 °F

High & Low Weather Summary for the Past Weeks

 TemperatureHumidityPressure
High68 °F (Dec 6, 3:00 pm)97% (Dec 4, 2:00 pm)30.29 "Hg (Dec 4, 2:00 pm)
Low48 °F (Nov 25, 6:00 am)50% (Nov 24, 11:00 am)29.59 "Hg (Nov 22, 6:00 pm)
Average59 °F78%29.91 "Hg
* Reported Nov 21 3:00 pm — Dec 6 3:00 pm, Almería, Weather by CustomWeather, © 2016

Note: Actual official high and low records may vary slightly from our data, if they occured in-between our weather recording intervals... More about our weather records

Advertising

Almería Weather History for the Previous 24 Hours

Scroll right to see more
 ConditionsComfort  
Time TempWeatherWind HumidityBarometerVisibility
3:00 pm
Tue, Dec 6
68 °FMild.9 mph74%30.22 "HgN/A
2:00 pm68 °FMild.9 mph76%30.22 "HgN/A
1:00 pm67 °FPassing clouds.10 mph78%30.23 "Hg28 mi
12:00 pm67 °FMild.9 mph74%30.26 "HgN/A
11:00 am66 °FMild.8 mph77%30.26 "HgN/A
10:00 am64 °FPartly sunny.2 mph79%30.24 "Hg28 mi
9:00 am62 °FCool.2 mph87%30.22 "HgN/A
8:00 am59 °FCool.3 mph92%30.19 "HgN/A
7:00 am60 °FOvercast.3 mph91%30.18 "Hg19 mi
6:00 am59 °FCool.1 mph92%30.15 "HgN/A
5:00 am59 °FCool.1 mph91%30.14 "HgN/A
4:00 am61 °FCool.1 mph87%30.14 "HgN/A
3:00 am61 °FCool.5 mph82%30.13 "HgN/A
2:00 am60 °FCool.2 mph87%30.12 "HgN/A
1:00 am60 °FCool.3 mph86%30.12 "HgN/A
12:00 am58 °FCool.No wind89%30.11 "HgN/A
11:00 pm
Mon, Dec 5
59 °FCool.1 mph90%30.10 "HgN/A
10:00 pm60 °FPassing clouds.2 mph86%30.09 "Hg19 mi
9:00 pm61 °FCool.7 mph82%30.08 "HgN/A
8:00 pm61 °FCool.6 mph84%30.06 "HgN/A
7:00 pm62 °FPassing clouds.6 mph80%30.04 "Hg19 mi
6:00 pm64 °FMild.6 mph77%30.01 "HgN/A
5:00 pm66 °FMild.7 mph75%29.99 "HgN/A
Weather by CustomWeather, © 2016

See weather overviewHow to use our weather pages